Stations météo

Publicité
Geilenkirchen, Allemagne (10500): Température de l'air & dewpoint: 19.06.2018 21:00:00 - 25.06.2018 21:00:00 (CEST)Geilenkirchen, Allemagne (10500): Vitesse du vent & gusts: 19.06.2018 21:00:00 - 25.06.2018 21:00:00 (CEST)Geilenkirchen, Allemagne (10500): Direction du vent: 19.06.2018 21:00:00 - 25.06.2018 21:00:00 (CEST)Geilenkirchen, Allemagne (10500): reduced air pressure: 19.06.2018 21:00:00 - 25.06.2018 21:00:00 (CEST)Geilenkirchen, Allemagne (10500): visibility: 19.06.2018 21:00:00 - 25.06.2018 21:00:00 (CEST)
Date & Time tt [°C] td [°C] ff [km/h] ff [knt] fx [km/h] fx [knt] dd ppp [hPa] vv [km]
25.06.2018 21:00:00 21,3 10,9 8 4 - - NNW 1024,2 10
25.06.2018 20:00:00 22,1 10,3 13 7 - - N 1024,1 10
25.06.2018 19:00:00 22,4 8,8 15 8 - - NNW 1024,2 10
25.06.2018 18:00:00 22,0 10,7 13 7 - - NW 1024,4 10
25.06.2018 17:00:00 22,0 10,8 16 9 - - WNW 1024,8 10
25.06.2018 16:00:00 20,8 11,7 8 4 - - NW 1025,0 10
25.06.2018 15:00:00 18,7 12,5 11 6 - - NNW 1025,5 30
25.06.2018 14:00:00 18,5 12,6 11 6 - - NW 1025,4 30
25.06.2018 13:00:00 18,4 12,8 9 5 - - NNW 1025,5 10
25.06.2018 12:00:00 18,4 12,1 8 4 - - NNW 1025,5 10
25.06.2018 11:00:00 16,6 12,8 8 4 - - N 1025,4 10
25.06.2018 10:00:00 15,2 12,7 8 4 - - N 1025,1 10
25.06.2018 09:00:00 14,8 12,6 11 6 - - NNW 1024,8 10
25.06.2018 08:00:00 13,7 13,0 5 3 - - N 1024,7 8
25.06.2018 07:00:00 13,5 13,5 9 5 - - NNW 1024,1 3,0
25.06.2018 06:00:00 13,1 12,7 8 4 - - WNW 1023,8 3,5
25.06.2018 05:00:00 13,4 12,2 8 4 - - WNW 1023,6 10
25.06.2018 04:00:00 13,4 11,9 9 5 - - NW 1023,7 10
25.06.2018 03:00:00 13,8 11,6 5 3 - - NW 1023,5 10
25.06.2018 02:00:00 13,9 11,5 5 3 - - N 1023,7 10
25.06.2018 01:00:00 14,2 11,4 9 5 - - N 1023,8 10
25.06.2018 00:00:00 14,3 11,7 4 2 - - N 1023,8 10
24.06.2018 23:00:00 15,2 11,5 11 6 - - N 1023,4 10
24.06.2018 22:00:00 16,1 11,0 11 6 - - NNW 1023,0 10
24.06.2018 21:00:00 16,7 10,8 15 8 - - NNW 1022,7 10
24.06.2018 20:00:00 17,3 10,7 11 6 - - NNW 1022,9 10
24.06.2018 19:00:00 - - - - - - - - -
24.06.2018 18:00:00 - - - - - - - - -
24.06.2018 17:00:00 - - - - - - - - -
24.06.2018 16:00:00 - - - - - - - - -
24.06.2018 15:00:00 - - - - - - - - -
24.06.2018 14:00:00 - - - - - - - - -
24.06.2018 13:00:00 - - - - - - - - -
24.06.2018 12:00:00 - - - - - - - - -
24.06.2018 11:00:00 - - - - - - - - -
24.06.2018 10:00:00 - - - - - - - - -
24.06.2018 09:00:00 - - - - - - - - -
24.06.2018 08:00:00 - - - - - - - - -
24.06.2018 07:00:00 - - - - - - - - -
24.06.2018 06:00:00 - - - - - - - - -
24.06.2018 05:00:00 - - - - - - - - -
24.06.2018 04:00:00 - - - - - - - - -
24.06.2018 03:00:00 - - - - - - - - -
24.06.2018 02:00:00 - - - - - - - - -
24.06.2018 01:00:00 - - - - - - - - -
24.06.2018 00:00:00 - - - - - - - - -
23.06.2018 23:00:00 - - - - - - - - -
23.06.2018 22:00:00 - - - - - - - - -
23.06.2018 21:00:00 - - - - - - - - -
23.06.2018 20:00:00 - - - - - - - - -
23.06.2018 19:00:00 - - - - - - - - -
23.06.2018 18:00:00 - - - - - - - - -
23.06.2018 17:00:00 - - - - - - - - -
23.06.2018 16:00:00 - - - - - - - - -
23.06.2018 15:00:00 - - - - - - - - -
23.06.2018 14:00:00 - - - - - - - - -
23.06.2018 13:00:00 - - - - - - - - -
23.06.2018 12:00:00 - - - - - - - - -
23.06.2018 11:00:00 - - - - - - - - -
23.06.2018 10:00:00 - - - - - - - - -
23.06.2018 09:00:00 - - - - - - - - -
23.06.2018 08:00:00 - - - - - - - - -
23.06.2018 07:00:00 - - - - - - - - -
23.06.2018 06:00:00 - - - - - - - - -
23.06.2018 05:00:00 - - - - - - - - -
23.06.2018 04:00:00 - - - - - - - - -
23.06.2018 03:00:00 - - - - - - - - -
23.06.2018 02:00:00 - - - - - - - - -
23.06.2018 01:00:00 - - - - - - - - -
23.06.2018 00:00:00 - - - - - - - - -
22.06.2018 23:00:00 - - - - - - - - -
22.06.2018 22:00:00 - - - - - - - - -
22.06.2018 21:00:00 - - - - - - - - -
22.06.2018 20:00:00 - - - - - - - - -
22.06.2018 19:00:00 - - - - - - - - -
22.06.2018 18:00:00 - - - - - - - - -
22.06.2018 17:00:00 15,9 8,7 31 17 - - W 1027,1 10
22.06.2018 16:00:00 15,6 7,9 29 16 54 29 WNW 1026,9 10
22.06.2018 15:00:00 16,3 7,5 26 14 47 25 NW 1026,8 10
22.06.2018 14:00:00 14,9 7,5 22 12 - - WNW 1026,9 10
22.06.2018 13:00:00 15,7 7,0 29 16 50 27 WNW 1026,7 10
22.06.2018 12:00:00 14,5 5,7 29 16 50 27 WNW 1026,6 10
22.06.2018 11:00:00 14,1 5,2 24 13 - - NW 1026,3 10
22.06.2018 10:00:00 13,4 5,7 31 17 54 29 WNW 1026,1 10
22.06.2018 09:00:00 13,2 7,3 28 15 47 25 W 1025,7 10
22.06.2018 08:00:00 10,9 6,9 22 12 - - W 1025,7 10
22.06.2018 07:00:00 10,2 6,4 22 12 - - W 1025,4 10
22.06.2018 06:00:00 9,3 6,1 18 10 - - WSW 1025,6 10
22.06.2018 05:00:00 9,4 5,9 16 9 - - W 1025,5 10
22.06.2018 04:00:00 9,9 6,1 18 10 - - W 1025,7 10
22.06.2018 03:00:00 9,6 5,9 15 8 - - WSW 1025,7 10
22.06.2018 02:00:00 10,0 5,4 16 9 - - W 1025,9 10
22.06.2018 01:00:00 8,9 5,6 15 8 - - W 1026,1 10
22.06.2018 00:00:00 9,7 5,3 15 8 - - W 1026,2 10
21.06.2018 23:00:00 11,2 5,2 16 9 - - WNW 1025,8 10
21.06.2018 22:00:00 12,2 5,8 18 10 - - WNW 1025,2 10
21.06.2018 21:00:00 14,0 6,0 24 13 50 27 WNW 1024,6 10
21.06.2018 20:00:00 14,8 5,5 24 13 - - WNW 1024,2 10
21.06.2018 19:00:00 15,9 5,2 26 14 - - WNW 1024,0 10
21.06.2018 18:00:00 15,7 5,7 31 17 50 27 WNW 1023,5 10
21.06.2018 17:00:00 16,6 3,9 26 14 - - NW 1022,7 10
21.06.2018 16:00:00 17,5 4,4 34 18 50 27 WNW 1022,0 10
21.06.2018 15:00:00 17,6 4,0 31 17 54 29 WNW 1021,3 10
21.06.2018 14:00:00 17,9 5,8 31 17 - - WNW 1020,8 10
21.06.2018 13:00:00 18,5 6,3 35 19 54 29 WNW 1020,3 10
21.06.2018 12:00:00 17,9 8,6 34 18 54 29 WNW 1019,6 10
21.06.2018 11:00:00 17,8 10,7 31 17 - - W 1018,6 10
21.06.2018 10:00:00 16,9 11,8 29 16 50 27 WNW 1018,0 10
21.06.2018 09:00:00 17,6 13,6 28 15 - - W 1016,8 10
21.06.2018 08:00:00 17,1 14,6 18 10 - - WSW 1016,3 10
21.06.2018 07:00:00 16,8 14,3 21 11 - - WSW 1016,0 10
21.06.2018 06:00:00 16,9 14,0 15 8 - - WSW 1015,9 10
21.06.2018 05:00:00 17,0 13,9 11 6 - - SW 1016,1 10
21.06.2018 04:00:00 18,1 14,2 13 7 - - SSW 1016,2 10
21.06.2018 03:00:00 18,8 14,5 11 6 - - SW 1017,1 10
21.06.2018 02:00:00 19,8 14,4 9 5 - - WSW 1017,4 10
21.06.2018 01:00:00 20,6 14,3 5 3 - - SW 1017,5 10
21.06.2018 00:00:00 20,9 14,5 8 4 - - W 1017,8 10
20.06.2018 23:00:00 21,8 14,5 5 3 - - W 1018,0 10
20.06.2018 22:00:00 22,2 14,3 9 5 - - W 1017,8 10
20.06.2018 21:00:00 25,0 14,3 18 10 - - W 1017,6 10
20.06.2018 20:00:00 26,8 13,8 21 11 - - W 1018,0 10
20.06.2018 19:00:00 27,5 13,4 22 12 - - W 1018,2 10
20.06.2018 18:00:00 27,4 13,2 22 12 - - W 1018,8 30
20.06.2018 17:00:00 27,4 13,0 22 12 - - W 1019,4 10
20.06.2018 16:00:00 26,5 15,0 18 10 - - W 1019,7 10
20.06.2018 15:00:00 26,5 15,9 16 9 - - WSW 1020,2 10
20.06.2018 14:00:00 25,3 16,2 16 9 - - WSW 1020,7 10
20.06.2018 13:00:00 24,8 15,7 13 7 - - SW 1021,6 10
20.06.2018 12:00:00 23,0 16,2 15 8 - - WSW 1021,9 10
20.06.2018 11:00:00 22,4 15,5 15 8 - - SW 1022,1 10
20.06.2018 10:00:00 21,3 16,1 15 8 - - WSW 1022,5 10
20.06.2018 09:00:00 20,0 15,6 8 4 - - WSW 1022,6 10
20.06.2018 08:00:00 19,4 16,2 9 5 - - W 1022,7 10
20.06.2018 07:00:00 18,1 16,0 4 2 - - S 1022,7 10
20.06.2018 06:00:00 17,9 15,9 4 2 - - S 1023,0 10
20.06.2018 05:00:00 18,0 16,1 4 2 - - SSW 1023,3 10
20.06.2018 04:00:00 18,3 16,2 4 2 - - SSW 1023,4 10
20.06.2018 03:00:00 18,3 16,3 7 4 - - W 1023,8 20
20.06.2018 02:00:00 18,8 16,0 5 3 - - SW 1024,1 10
20.06.2018 01:00:00 19,1 15,8 5 3 - - S 1024,3 10
20.06.2018 00:00:00 19,3 15,9 5 3 - - SW 1024,4 10
19.06.2018 23:00:00 19,7 15,8 2 1 - - SW 1024,5 10
19.06.2018 22:00:00 20,0 15,9 8 4 - - WSW 1024,2 10
19.06.2018 21:00:00 20,5 16,0 11 6 - - WSW 1024,1 30

tt = Température de l'air
td = dewpoint
ff = Vitesse du vent
fx = gusts
dd = Direction du vent
ppp = reduced air pressure
vv = visibility

stations d'obs. à proximité